Location: Bocianicha
(51.5066°N, 19.2563°E)
Time: 13:58:17
(UTC+00:00)

Cosmos 220 Rocket - Pass Details

Date: 15 June 2025
Orbit: 545 x 581 km, 74.0° (Epoch: 18 July)

Event Time Altitude Azimuth Distance (km) Brightness Sun altitude
Rises 01:16:40 0° 332° (NNW) 2,758 7.8 -8.0°
Reaches altitude 10° 01:18:53 10° 329° (NNW) 1,864 6.8 -7.8°
Maximum altitude 01:22:57 58° 250° (WSW) 664 4.0 -7.4°
Drops below altitude 10° 01:27:03 10° 171° (S) 1,871 6.1 -7.0°
Sets 01:29:17 0° 168° (SSE) 2,770 7.0 -6.8°
